Retour au catalogue

ONEWEB-0555

ActifCommunicationsPO
NORAD 56057·PAYLOAD·🇬🇧 United Kingdom

Lancé Mar 26, 2023 depuis Satish Dhawan Space Centre

Loading…

Prochains Passages (prochaines 24 heures)

TLE

FraisSource: CelesTrak SupGP

Époque: Sep 14, 2026, 17:45 UTC

1 56057C 23043M   26257.73973796  .00002857  00000+0  74827-2 0  2576
2 56057  87.9146 210.9905 0001866  95.3104 302.9961 13.16587891    19

Suivez ONEWEB-0555 en temps réel avec AllMySat

Download on the App Store